Starlink 6250

operational
NORAD ID: 57230 Int'l Des: 2023-094 Owner: SPXS Country: US Constellation: starlink
LEOCIRCULAR

关于 Starlink 6250

正在加载描述...

实时位置

正在加载3D地球...

即将过境

高度历史

Altitude vs Time

uPlot chart will show altitude changes over time

两行轨道根数

1 57230U 23094N 25351.74233729 .00000594 00000-0 59064-4 0 9994
2 57230 43.0044 115.5491 0001517 259.3796 100.6876 15.02545421134796
Epoch: Dec 17, 2025 • Age: 13 hours

当前状态

高度 564.8 km
速度 7.58 km/s
星下点 -25.49°S, 101.1°W
发射日期 Jul 7, 2023
运行时间 2.4 years
类型 internet

技术详情

分类 Payload
质量 305.00 kg
干质量 290.00 kg
总质量 305.00 kg
长度 0.20 m
直径 2.80 m
跨度 9.00 m
形状 Box + pan
制造商 SPXS
平台类型 Starlink
阶段状态 In Orbit
所有者/国家 SPXS/US

大型星座

Loading constellations...